Location: Darmstadt
(49.8706°N, 8.6494°E)
Time: 06:14:26
(UTC+01:00)

Cosmos 883 Rocket - Pass Details

Date: 31 October 2020
Orbit: 951 x 995 km, 83.0° (Epoch: 03 December)

Event Time Altitude Azimuth Distance (km) Brightness Sun altitude
Rises 18:56:03 0° 178° (S) 3,631 7.5 -18.5°
Reaches altitude 10° 18:58:34 10° 176° (S) 2,684 6.8 -18.9°
Maximum altitude 19:04:38 67° 95° (E) 1,029 4.3 -19.9°
Drops below altitude 10° 19:10:42 10° 14° (NNE) 2,688 6.7 -20.9°
Sets 19:13:13 0° 12° (NNE) 3,638 7.4 -21.3°
